Погода в Софифи

Индонезия     0°43′56″N   127°33′33″E
темп.,
°C
ветер,
м/с
пор.,
м/с
влажн.,
%
обл.,
%
осадки,
мм/ч
давл.,
гПа
погр.,
м
24 января, вс
вс2400:00+25с4584100 0.5 1010445
03:00+25с4486100 0.6 1008396
06:00+26ссв3484100 1.5 1009267
09:00+26св2380100 1.4 1010372
12:00+27с3377100 1.0 1009338
15:00+27ссз7880100 5.9 1007614
18:00+27ссз6778100 3.6 1008645
21:00+27сз4578100 5.3 1010559
25 января, пн
пн2500:00+27сз5780100 3.9 1009516
03:00+26ссз5686100 5.3 1008425
06:00+26с4485100 0.6 1009394
09:00+26с3482100 1.0 1010391
12:00+28сз4571100 0.4 1008817
15:00+28сз4571100 0.4 1007884
18:00+28сз4577100 0.4 1007679
21:00+27ссз5580100 1.9 1009601
26 января, вт
вт2600:00+27ссз4579100 4.0 1009452
03:00+26с3480100 5.6 1007366
06:00+26ссв3379100 0.6 1007430
09:00+26с3380100 2.2 1009353
12:00+26ссз2280100 3.1 1008291
15:00+24св3492100 10.5 1006368
18:00+24ссв3489100 3.8 1006386
21:00+25ссв3483100 4.0 1008500
27 января, ср
ср2700:00+25ссв3382100 0.0 1008425
03:00+25ссв3380100 0.0 1006320
06:00+25ссв3382100 0.0 1007340
09:00+25св3382100 0.1 1008286
12:00+26с2274100 0.6 1008411
15:00+27сз5779100 2.1 1006733
18:00+26сз5581100 4.8 1006506
21:00+27с3376100 6.8 1008476
28 января, чт
чт2800:00+26ссв4475100 0.1 1008381
03:00+23всв1180100 1.0 1007176
06:00+24св1185100 0.3 1007173
09:00+25ссв2281100 0.3 1009235
12:00+26св1277100 0.4 1009341
15:00+26ссз2276100 1.8 1006372
18:00+26ссз3581100 0.8 1006591
21:00+27ссз4578100 0.8 1008641